Location: Home
(42.5358°N, 72.7383°W)
Time: 04:02:21
(UTC-04:00)

Explorer 11/Cluster Stage 4 - Pass Details

Date: 22 April 2025
Orbit: 463 x 1190 km, 28.8° (Epoch: 11 May)

Event Time Altitude Azimuth Distance (km) Brightness Sun altitude
Rises 08:12:12 0° 248° (WSW) 3,318 9.3 23.5°
Reaches altitude 10° 08:16:01 10° 225° (SW) 2,206 8.6 24.2°
Maximum altitude 08:18:41 14° 193° (SSW) 1,813 8.5 24.7°
Drops below altitude 10° 08:21:07 10° 161° (SSE) 1,971 9.1 25.2°
Sets 08:24:12 0° 136° (SE) 2,739 10.1 25.7°
